Weather History for Fairbanks, AK

Change the Weather History Date:

Saturday, August 4, 2012

  Actual Average Record
Temperature  
Mean Temperature 54 °F 59 °F  
Max Temperature 59 °F 69 °F 91 °F (1994)
Min Temperature 48 °F 50 °F 33 °F (1926)
Degree Days  
Heating Degree Days 11 6  
Month to date heating degree days 34 23  
Since 1 June heating degree days 284 291  
Since 1 July heating degree days 169 131  
Cooling Degree Days 0 0  
Month to date cooling degree days 0 0  
Year to date cooling degree days 34 55  
Since 1 June cooling degree days 34 54  
Growing Degree Days 4 (Base 50)    
Moisture  
Dew Point 48 °F    
Average Humidity 82    
Maximum Humidity 97    
Minimum Humidity 63    
Precipitation  
Precipitation T in 0.07 in 1.53 in (1932)
Month to date precipitation 0.02 0.28  
Year to date precipitation 5.78 5.97  
Snow  
Snow 0.00 in 0.00 in - ()
Month to date snowfall 0.0 0.0  
Since 1 June snowfall 0.0 0.0  
Since 1 July snowfall 0.0 0.0  
Snow Depth 0.00 in    
Sea Level Pressure  
Sea Level Pressure 30.00 in    
Wind  
Wind Speed 1 mph (North)    
Max Wind Speed 6 mph    
Max Gust Speed -    
Visibility 10 miles    
Events Rain    
T = Trace of Precipitation, MM = Missing Value Source: NWS Daily Summary

Daily Weather History Graph

Daily Weather History Graph

Search for Another Location

Airport:

Trip Planner

Search our weather history database for the weather conditions in past years. The results will help you decide how hot, cold, wet, or windy it might be!

Date:

Astronomy

Aug. 04, 2012 Rise Set
Actual Time 5:03 AM AKDT 10:48 PM AKDT
Civil Twilight 3:36 AM AKDT 12:13 AM AKDT
Nautical Twilight Sun does not rise Sun does not rise
Astronomical Twilight Sun does not rise Sun does not rise
Moon 10:09 PM AKDT (8/4) 9:43 AM AKDT (8/4)
Length of Visible Light 20h 37m
Length of Day
17h 44m
Waning Gibbous, 92% of the Moon is Illuminated
Aug 4
Waning Gibbous
Aug 9
Last Quarter
Aug 17
New
Aug 24
First Quarter
Aug 31
Full

Hourly Weather History & Observations

Time (AKDT) Temp. Dew Point Humidity Pressure Visibility Wind Dir Wind Speed Gust Speed Precip Events Conditions
12:53 AM 53.1 °F 48.9 °F 86% 30.04 in 10.0 mi Calm Calm - N/A   Overcast
1:53 AM 52.0 °F 48.9 °F 89% 30.04 in 10.0 mi SSW 4.6 mph - N/A   Overcast
2:53 AM 51.1 °F 48.9 °F 92% 30.04 in 10.0 mi Calm Calm - N/A   Partly Cloudy
3:53 AM 48.9 °F 48.0 °F 97% 30.03 in 9.0 mi Calm Calm - N/A   Partly Cloudy
4:53 AM 48.9 °F 46.9 °F 93% 30.04 in 10.0 mi Calm Calm - N/A   Scattered Clouds
5:35 AM 48.2 °F 46.4 °F 93% 30.02 in 10.0 mi Calm Calm - N/A   Scattered Clouds
5:53 AM 48.0 °F 46.0 °F 93% 30.04 in 10.0 mi NNE 4.6 mph - N/A   Scattered Clouds
6:53 AM 50.0 °F 48.0 °F 93% 30.04 in 10.0 mi NNE 4.6 mph - N/A   Mostly Cloudy
7:53 AM 50.0 °F 48.0 °F 93% 30.04 in 10.0 mi NNE 3.5 mph - N/A   Mostly Cloudy
8:53 AM 51.1 °F 48.0 °F 89% 30.03 in 10.0 mi NE 3.5 mph - N/A   Mostly Cloudy
9:53 AM 52.0 °F 48.9 °F 89% 30.03 in 10.0 mi Calm Calm - 0.00 in   Mostly Cloudy
10:53 AM 54.0 °F 48.0 °F 80% 30.02 in 10.0 mi Calm Calm - N/A   Mostly Cloudy
11:53 AM 55.0 °F 48.0 °F 77% 30.01 in 10.0 mi Calm Calm - N/A   Mostly Cloudy
12:53 PM 55.9 °F 50.0 °F 80% 30.01 in 10.0 mi NW 3.5 mph - 0.00 in Rain Light Rain
1:53 PM 57.0 °F 48.9 °F 74% 30.00 in 10.0 mi Calm Calm - 0.00 in   Overcast
2:53 PM 57.9 °F 50.0 °F 75% 29.99 in 10.0 mi NW 3.5 mph - N/A   Overcast
3:53 PM 57.9 °F 48.9 °F 72% 29.98 in 10.0 mi Calm Calm - 0.00 in   Overcast
4:53 PM 57.9 °F 48.9 °F 72% 29.97 in 10.0 mi Calm Calm - 0.00 in Rain Light Rain
5:53 PM 57.9 °F 48.9 °F 72% 29.96 in 10.0 mi NNW 5.8 mph - 0.00 in   Overcast
6:53 PM 57.9 °F 46.9 °F 67% 29.94 in 10.0 mi NNW 5.8 mph - N/A   Overcast
7:53 PM 57.9 °F 48.0 °F 70% 29.93 in 10.0 mi North 3.5 mph - N/A   Overcast
8:53 PM 57.0 °F 48.9 °F 74% 29.92 in 10.0 mi Calm Calm - 0.00 in   Overcast
9:53 PM 55.9 °F 48.9 °F 77% 29.93 in 10.0 mi Calm Calm - 0.00 in   Mostly Cloudy
10:53 PM 55.0 °F 48.0 °F 77% 29.93 in 10.0 mi Calm Calm - N/A   Mostly Cloudy
11:53 PM 51.1 °F 48.0 °F 89% 29.93 in 10.0 mi Calm Calm - N/A   Mostly Cloudy